Flag for Germany Weather past 2 weeks in Neunkirchen (Saar), Saarland, Germany

Now
34 °F

Passing clouds.


Feels Like: 28 °F
Forecast: 32 / 36 °F
Wind: 7 mph from South

Location: Saarbruecken / Ensheim

Current Time: Dec 27, 2014 at 12:36:46 AM

Latest Report: Dec 27, 2014 at 12:20 AM


Visibility: N/A

Pressure: 30.09 "Hg

Humidity: 93%

Dew point: 32 °F

Location of Neunkirchen (Saar)Location

Historic Weather in Neunkirchen (Saar) — Graph

°F

Neunkirchen (Saar) temperature yesterday

Maximum temperature yesterday: 37 °F (at 11:20 AM)
Minimum temperature yesterday: 34 °F (at 8:20 AM)
Average temperature yesterday: 36 °F

Past Weeks' High & Low Weather Summary

 TemperatureHumidityPressure
High52 °F (Dec 18, 1:20 PM)100% (Dec 13, 11:50 PM)30.51 "Hg (Dec 13, 11:50 PM)
Low34 °F (Dec 24, 3:50 AM)71% (Dec 12, 11:50 AM)29.65 "Hg (Dec 12, 4:50 PM)
Average42 °F91%30.10 "Hg
* Reported Dec 11 11:20 PM — Dec 26 11:20 PM, Neunkirchen (Saar), Weather by CustomWeather, © 2014

Note: Actual official high and low records may vary slightly from our data, if they occured in-between our weather recording intervals... More about our weather records

Advertising

Neunkirchen (Saar) weather history for previous 24 hours

 ConditionsComfort  
Time TempWeatherWind HumidityBarometerVisibility
11:20 PM
Dec 26
34 °FPassing clouds.9 mph93%30.15 "HgN/A
10:50 PM36 °FPassing clouds.8 mph87%30.18 "HgN/A
10:20 PM36 °FPartly cloudy.7 mph87%30.18 "HgN/A
9:50 PM36 °FPartly cloudy.6 mph93%30.21 "HgN/A
9:20 PM36 °FPassing clouds.6 mph93%30.24 "HgN/A
8:50 PM36 °FPartly cloudy.5 mph93%30.27 "HgN/A
8:20 PM36 °FPassing clouds.5 mph93%30.27 "HgN/A
7:50 PM36 °FPartly cloudy.7 mph93%30.27 "HgN/A
7:20 PM36 °FPartly cloudy.9 mph93%30.30 "HgN/A
6:50 PM36 °FPartly cloudy.8 mph93%30.30 "HgN/A
6:20 PM36 °FPartly cloudy.7 mph93%30.30 "HgN/A
5:20 PM36 °FPartly cloudy.5 mph87%30.33 "HgN/A
4:20 PM37 °FPartly sunny.6 mph81%30.33 "HgN/A
3:50 PM37 °FBroken clouds.9 mph81%30.33 "HgN/A
3:20 PM37 °FBroken clouds.9 mph81%30.36 "HgN/A
2:50 PM37 °FBroken clouds.9 mph81%30.36 "HgN/A
2:20 PM37 °FPartly sunny.9 mph87%30.36 "HgN/A
1:50 PM37 °FPartly sunny.7 mph87%30.36 "HgN/A
1:20 PM37 °FPartly sunny.8 mph87%30.36 "HgN/A
12:50 PM37 °FPartly sunny.8 mph87%30.39 "HgN/A
12:20 PM37 °FBroken clouds.7 mph87%30.39 "HgN/A
11:50 AM37 °FPartly sunny.7 mph87%30.42 "HgN/A
11:20 AM37 °FPartly sunny.8 mph93%30.42 "HgN/A
10:50 AM36 °FPartly sunny.10 mph100%30.42 "Hg6 mi
10:20 AM36 °FPartly sunny.5 mph100%30.42 "Hg4 mi
9:50 AM36 °FPartly sunny.1 mph93%30.39 "Hg4 mi
9:20 AM36 °FPartly sunny.3 mph93%30.39 "Hg4 mi
8:50 AM36 °FLow clouds.5 mph93%30.39 "Hg4 mi
8:20 AM34 °FPassing clouds.6 mph100%30.39 "Hg5 mi
7:50 AM36 °FLight rain. Passing clouds.7 mph93%30.39 "Hg5 mi
7:20 AM36 °FLight rain. Passing clouds.8 mph93%30.39 "HgN/A
6:50 AM36 °FPassing clouds.5 mph100%30.39 "HgN/A
6:20 AM36 °FPassing clouds.7 mph100%30.39 "HgN/A
5:50 AM36 °FLight rain. Passing clouds.7 mph100%30.39 "HgN/A
5:20 AM36 °FPassing clouds.7 mph100%30.36 "HgN/A
4:50 AM36 °FLight rain. Passing clouds.7 mph100%30.39 "HgN/A
4:20 AM36 °FPassing clouds.6 mph100%30.36 "HgN/A
3:50 AM36 °FPassing clouds.7 mph100%30.36 "HgN/A
3:20 AM36 °FLight rain. Passing clouds.8 mph100%30.36 "HgN/A
2:50 AM36 °FPassing clouds.7 mph100%30.39 "HgN/A
2:20 AM36 °FLight rain. Passing clouds.8 mph100%30.39 "HgN/A
1:50 AM36 °FPassing clouds.7 mph100%30.36 "HgN/A
1:20 AM36 °FPassing clouds.8 mph93%30.36 "HgN/A
12:50 AM36 °FPartly cloudy.7 mph93%30.36 "HgN/A
12:20 AM36 °FPassing clouds.9 mph93%30.36 "HgN/A
Weather by CustomWeather, © 2014

See weather overviewHow to use our weather pages